TimeCST,TemperatureF,Dew PointF,Humidity,Sea Level PressureIn,VisibilityMPH,Wind Direction,Wind SpeedMPH,Gust SpeedMPH,PrecipitationIn,Events,Conditions,WindDirDegrees,DateUTC
12:34 AM,33.8,32.0,93,29.47,1.2,NNE,8.1,-,0.03,Snow,Light Snow,20,2012-02-24 06:34:00
12:52 AM,33.1,32.0,96,29.49,1.0,NNE,8.1,-,0.05,Snow,Light Snow,20,2012-02-24 06:52:00
1:09 AM,33.8,32.0,93,29.48,0.8,NNE,8.1,-,0.02,Snow,Light Snow,20,2012-02-24 07:09:00
1:19 AM,33.8,32.0,93,29.49,1.0,North,8.1,-,0.03,Snow,Light Snow,10,2012-02-24 07:19:00
1:38 AM,33.8,30.2,87,29.49,1.0,North,6.9,-,0.05,Snow,Light Snow,360,2012-02-24 07:38:00
1:49 AM,33.8,30.2,87,29.49,0.8,North,9.2,-,0.06,Snow,Light Snow,360,2012-02-24 07:49:00
1:52 AM,33.1,30.9,92,29.50,1.0,North,10.4,-,0.07,Snow,Light Snow,10,2012-02-24 07:52:00
2:52 AM,33.1,30.9,92,29.52,1.0,NNW,11.5,20.7,0.05,Snow,Light Snow,340,2012-02-24 08:52:00
3:21 AM,32.0,30.2,93,29.53,0.8,North,13.8,19.6,0.02,Snow,Light Snow,360,2012-02-24 09:21:00
3:35 AM,32.0,30.2,93,29.54,1.2,NNW,11.5,-,0.04,Snow,Light Snow,330,2012-02-24 09:35:00
3:41 AM,32.0,30.2,93,29.54,2.0,NNW,11.5,19.6,0.04,Snow,Light Snow,340,2012-02-24 09:41:00
3:52 AM,32.0,30.9,96,29.57,2.0,NNW,11.5,18.4,0.04,Snow,Light Snow,340,2012-02-24 09:52:00
4:00 AM,32.0,30.2,93,29.56,1.5,NNW,13.8,-,0.00,Snow,Light Snow,340,2012-02-24 10:00:00
4:04 AM,32.0,30.2,93,29.56,1.2,NNW,12.7,-,0.00,Snow,Light Snow,340,2012-02-24 10:04:00
4:30 AM,32.0,30.2,93,29.58,1.8,NNW,13.8,19.6,0.01,Snow,Light Snow,330,2012-02-24 10:30:00
4:37 AM,32.0,30.2,93,29.59,2.0,NNW,16.1,21.9,0.01,Snow,Light Snow,330,2012-02-24 10:37:00
4:40 AM,32.0,30.2,93,29.59,1.8,NNW,15.0,21.9,0.02,Snow,Light Snow,330,2012-02-24 10:40:00
4:52 AM,32.0,30.0,92,29.61,1.5,NNW,12.7,20.7,0.02,Snow,Light Snow,330,2012-02-24 10:52:00
5:52 AM,32.0,30.0,92,29.65,1.5,NW,11.5,23.0,0.00,Snow,Light Snow,310,2012-02-24 11:52:00
6:32 AM,32.0,30.2,93,29.66,1.0,WNW,13.8,21.9,0.00,Snow,Light Snow,300,2012-02-24 12:32:00
6:52 AM,32.0,30.0,92,29.70,0.8,NW,12.7,-,0.00,Snow,Light Snow,310,2012-02-24 12:52:00
7:11 AM,32.0,30.2,93,29.69,1.5,WNW,13.8,24.2,0.01,Snow,Light Snow,300,2012-02-24 13:11:00
7:22 AM,32.0,30.2,93,29.69,1.5,WNW,13.8,21.9,0.01,Snow,Light Snow,300,2012-02-24 13:22:00
7:41 AM,32.0,28.4,87,29.70,3.0,WNW,18.4,25.3,0.01,,Overcast,300,2012-02-24 13:41:00
7:52 AM,32.0,28.9,88,29.73,3.0,WNW,16.1,-,0.01,,Overcast,300,2012-02-24 13:52:00
8:10 AM,32.0,28.4,87,29.72,7.0,WNW,13.8,26.5,N/A,,Overcast,300,2012-02-24 14:10:00
8:52 AM,32.0,27.0,82,29.76,7.0,WNW,18.4,26.5,N/A,,Overcast,300,2012-02-24 14:52:00
9:52 AM,32.0,26.6,80,29.78,9.0,WNW,15.0,27.6,N/A,,Mostly Cloudy,290,2012-02-24 15:52:00
10:30 AM,32.0,28.4,87,29.80,5.0,WNW,15.0,23.0,0.00,Snow,Light Snow,290,2012-02-24 16:30:00
10:52 AM,33.1,28.0,82,29.82,10.0,WNW,17.3,24.2,0.00,,Mostly Cloudy,290,2012-02-24 16:52:00
11:38 AM,33.8,28.4,81,29.83,7.0,WNW,17.3,24.2,N/A,,Overcast,290,2012-02-24 17:38:00
11:52 AM,32.0,26.1,79,29.86,9.0,WNW,17.3,34.5,N/A,,Overcast,290,2012-02-24 17:52:00
12:52 PM,30.9,25.0,79,29.88,10.0,WNW,23.0,33.4,N/A,,Overcast,290,2012-02-24 18:52:00
1:52 PM,30.0,21.9,72,29.90,10.0,WNW,25.3,34.5,N/A,,Overcast,290,2012-02-24 19:52:00
2:24 PM,30.2,21.2,69,29.90,10.0,WNW,24.2,36.8,N/A,,Overcast,290,2012-02-24 20:24:00
2:52 PM,30.0,21.9,72,29.94,10.0,WNW,20.7,33.4,N/A,,Overcast,290,2012-02-24 20:52:00
3:52 PM,30.0,21.9,72,29.97,10.0,West,21.9,29.9,N/A,,Overcast,280,2012-02-24 21:52:00
4:52 PM,28.9,19.9,69,29.98,10.0,WNW,23.0,31.1,N/A,,Overcast,300,2012-02-24 22:52:00
5:52 PM,28.0,19.0,69,30.00,10.0,WNW,17.3,28.8,N/A,,Mostly Cloudy,290,2012-02-24 23:52:00
6:52 PM,27.0,17.1,66,30.03,10.0,West,19.6,26.5,N/A,,Mostly Cloudy,280,2012-02-25 00:52:00
7:52 PM,26.1,19.0,75,30.04,10.0,West,17.3,25.3,N/A,,Overcast,280,2012-02-25 01:52:00
8:52 PM,26.1,18.0,71,30.06,10.0,West,16.1,-,N/A,,Overcast,270,2012-02-25 02:52:00
9:52 PM,26.1,18.0,71,30.06,10.0,West,19.6,26.5,N/A,,Overcast,280,2012-02-25 03:52:00
10:52 PM,24.8,17.6,74,30.04,10.0,West,16.1,24.2,N/A,,Mostly Cloudy,280,2012-02-25 04:52:00
11:52 PM,24.1,18.0,77,30.06,10.0,West,11.5,-,N/A,,Mostly Cloudy,280,2012-02-25 05:52:00